Location: Morisset
(33.1080°S, 151.4871°E)
Time: 12:25:31
(UTC+00:00)

Cosmos 1470 - Pass Details

Date: 29 October 2020
Orbit: 522 x 541 km, 82.5° (Epoch: 23 November)

Event Time Altitude Azimuth Distance (km) Brightness Sun altitude
Exits shadow 18:10:07 11° 320° (NW) 1,758 4.8 -10.0°
Maximum altitude 18:13:29 30° 259° (W) 1,002 3.7 -9.3°
Drops below altitude 10° 18:17:02 10° 197° (SSW) 1,822 5.6 -8.7°
Sets 18:19:25 0° 186° (S) 2,720 6.6 -8.2°
